Year,Month,Day,Hour,Minute,Value (Times are PST for temperature in C)
2019,08,03,00,00,16.60
2019,08,03,00,01,16.60
2019,08,03,00,02,16.60
2019,08,03,00,03,16.50
2019,08,03,00,04,16.50
2019,08,03,00,05,16.50
2019,08,03,00,06,16.40
2019,08,03,00,07,16.40
2019,08,03,00,08,16.40
2019,08,03,00,09,16.30
2019,08,03,00,10,16.30
2019,08,03,00,11,16.30
2019,08,03,00,12,16.30
2019,08,03,00,13,16.20
2019,08,03,00,14,16.20
2019,08,03,00,15,16.20
2019,08,03,00,16,16.20
2019,08,03,00,17,16.10
2019,08,03,00,18,16.10
2019,08,03,00,19,16.10
2019,08,03,00,20,16.10
2019,08,03,00,21,16.00
2019,08,03,00,22,16.00
2019,08,03,00,23,16.00
2019,08,03,00,24,15.90
2019,08,03,00,25,15.90
2019,08,03,00,26,15.90
2019,08,03,00,27,15.90
2019,08,03,00,28,15.90
2019,08,03,00,29,15.80
2019,08,03,00,30,15.80
2019,08,03,00,31,15.80
2019,08,03,00,32,15.70
2019,08,03,00,33,15.70
2019,08,03,00,34,15.70
2019,08,03,00,35,15.70
2019,08,03,00,36,15.70
2019,08,03,00,37,15.60
2019,08,03,00,38,15.60
2019,08,03,00,39,15.60
2019,08,03,00,40,15.60
2019,08,03,00,41,15.50
2019,08,03,00,42,15.50
2019,08,03,00,43,15.50
2019,08,03,00,44,15.40
2019,08,03,00,45,15.40
2019,08,03,00,46,15.40
2019,08,03,00,47,15.40
2019,08,03,00,48,15.40
2019,08,03,00,49,15.30
2019,08,03,00,50,15.30
2019,08,03,00,51,15.30
2019,08,03,00,52,15.30
2019,08,03,00,53,15.30
2019,08,03,00,54,15.30
2019,08,03,00,55,15.30
2019,08,03,00,56,15.30
2019,08,03,00,57,15.30
2019,08,03,00,58,15.30
2019,08,03,00,59,15.30
2019,08,03,01,00,15.20
2019,08,03,01,01,15.20
2019,08,03,01,02,15.20
2019,08,03,01,03,15.20
2019,08,03,01,04,15.20
2019,08,03,01,05,15.20
2019,08,03,01,06,15.10
2019,08,03,01,07,15.10
2019,08,03,01,08,15.10
2019,08,03,01,09,15.10
2019,08,03,01,10,15.00
2019,08,03,01,11,15.00
2019,08,03,01,12,15.00
2019,08,03,01,13,14.90
2019,08,03,01,14,14.90
2019,08,03,01,15,14.90
2019,08,03,01,16,14.90
2019,08,03,01,17,14.90
2019,08,03,01,18,14.80
2019,08,03,01,19,14.80
2019,08,03,01,20,14.80
2019,08,03,01,21,14.80
2019,08,03,01,22,14.80
2019,08,03,01,23,14.70
2019,08,03,01,24,14.70
2019,08,03,01,25,14.70
2019,08,03,01,26,14.70
2019,08,03,01,27,14.70
2019,08,03,01,28,14.70
2019,08,03,01,29,14.70
2019,08,03,01,30,14.60
2019,08,03,01,31,14.60
2019,08,03,01,32,14.60
2019,08,03,01,33,14.60
2019,08,03,01,34,14.60
2019,08,03,01,35,14.60
2019,08,03,01,36,14.60
2019,08,03,01,37,14.50
2019,08,03,01,38,14.50
2019,08,03,01,39,14.50
2019,08,03,01,40,14.50
2019,08,03,01,41,14.40
2019,08,03,01,42,14.40
2019,08,03,01,43,14.40
2019,08,03,01,44,14.40
2019,08,03,01,45,14.30
2019,08,03,01,46,14.30
2019,08,03,01,47,14.30
2019,08,03,01,48,14.30
2019,08,03,01,49,14.30
2019,08,03,01,50,14.30
2019,08,03,01,51,14.30
2019,08,03,01,52,14.30
2019,08,03,01,53,14.30
2019,08,03,01,54,14.30
2019,08,03,01,55,14.30
2019,08,03,01,56,14.30
2019,08,03,01,57,14.30
2019,08,03,01,58,14.30
2019,08,03,01,59,14.30
2019,08,03,02,00,14.30
2019,08,03,02,01,14.30
2019,08,03,02,02,14.30
2019,08,03,02,03,14.30
2019,08,03,02,04,14.30
2019,08,03,02,05,14.30
2019,08,03,02,06,14.30
2019,08,03,02,07,14.30
2019,08,03,02,08,14.30
2019,08,03,02,09,14.30
2019,08,03,02,10,14.30
2019,08,03,02,11,14.20
2019,08,03,02,12,14.20
2019,08,03,02,13,14.20
2019,08,03,02,14,14.20
2019,08,03,02,15,14.20
2019,08,03,02,16,14.20
2019,08,03,02,17,14.20
2019,08,03,02,18,14.10
2019,08,03,02,19,14.10
2019,08,03,02,20,14.10
2019,08,03,02,21,14.10
2019,08,03,02,22,14.10
2019,08,03,02,23,14.00
2019,08,03,02,24,14.00
2019,08,03,02,25,14.00
2019,08,03,02,26,14.00
2019,08,03,02,27,14.00
2019,08,03,02,28,13.90
2019,08,03,02,29,13.90
2019,08,03,02,30,13.90
2019,08,03,02,31,13.90
2019,08,03,02,32,13.90
2019,08,03,02,33,13.90
2019,08,03,02,34,13.90
2019,08,03,02,35,13.80
2019,08,03,02,36,13.80
2019,08,03,02,37,13.80
2019,08,03,02,38,13.80
2019,08,03,02,39,13.80
2019,08,03,02,40,13.80
2019,08,03,02,41,13.80
2019,08,03,02,42,13.80
2019,08,03,02,43,13.80
2019,08,03,02,44,13.70
2019,08,03,02,45,13.70
2019,08,03,02,46,13.70
2019,08,03,02,47,13.70
2019,08,03,02,48,13.70
2019,08,03,02,49,13.70
2019,08,03,02,50,13.70
2019,08,03,02,51,13.70
2019,08,03,02,52,13.70
2019,08,03,02,53,13.70
2019,08,03,02,54,13.70
2019,08,03,02,55,13.70
2019,08,03,02,56,13.70
2019,08,03,02,57,13.70
2019,08,03,02,58,13.70
2019,08,03,02,59,13.70
2019,08,03,03,00,13.70
2019,08,03,03,01,13.70
2019,08,03,03,02,13.70
2019,08,03,03,03,13.70
2019,08,03,03,04,13.70
2019,08,03,03,05,13.60
2019,08,03,03,06,13.60
2019,08,03,03,07,13.60
2019,08,03,03,08,13.60
2019,08,03,03,09,13.60
2019,08,03,03,10,13.60
2019,08,03,03,11,13.60
2019,08,03,03,12,13.60
2019,08,03,03,13,13.60
2019,08,03,03,14,13.60
2019,08,03,03,15,13.60
2019,08,03,03,16,13.60
2019,08,03,03,17,13.60
2019,08,03,03,18,13.60
2019,08,03,03,19,13.60
2019,08,03,03,20,13.60
2019,08,03,03,21,13.60
2019,08,03,03,22,13.60
2019,08,03,03,23,13.60
2019,08,03,03,24,13.60
2019,08,03,03,25,13.50
2019,08,03,03,26,13.50
2019,08,03,03,27,13.50
2019,08,03,03,28,13.50
2019,08,03,03,29,13.50
2019,08,03,03,30,13.40
2019,08,03,03,31,13.40
2019,08,03,03,32,13.40
2019,08,03,03,33,13.40
2019,08,03,03,34,13.30
2019,08,03,03,35,13.30
2019,08,03,03,36,13.30
2019,08,03,03,37,13.30
2019,08,03,03,38,13.30
2019,08,03,03,39,13.30
2019,08,03,03,40,13.30
2019,08,03,03,41,13.30
2019,08,03,03,42,13.20
2019,08,03,03,43,13.20
2019,08,03,03,44,13.20
2019,08,03,03,45,13.20
2019,08,03,03,46,13.20
2019,08,03,03,47,13.20
2019,08,03,03,48,13.20
2019,08,03,03,49,13.20
2019,08,03,03,50,13.20
2019,08,03,03,51,13.20
2019,08,03,03,52,13.20
2019,08,03,03,53,13.20
2019,08,03,03,54,13.20
2019,08,03,03,55,13.20
2019,08,03,03,56,13.20
2019,08,03,03,57,13.20
2019,08,03,03,58,13.20
2019,08,03,03,59,13.20
2019,08,03,04,00,13.20
2019,08,03,04,01,13.10
2019,08,03,04,02,13.10
2019,08,03,04,03,13.10
2019,08,03,04,04,13.10
2019,08,03,04,05,13.10
2019,08,03,04,06,13.10
2019,08,03,04,07,13.10
2019,08,03,04,08,13.10
2019,08,03,04,09,13.10
2019,08,03,04,10,13.10
2019,08,03,04,11,13.10
2019,08,03,04,12,13.00
2019,08,03,04,13,13.00
2019,08,03,04,14,13.00
2019,08,03,04,15,13.00
2019,08,03,04,16,13.00
2019,08,03,04,17,13.00
2019,08,03,04,18,13.00
2019,08,03,04,19,12.90
2019,08,03,04,20,12.90
2019,08,03,04,21,12.90
2019,08,03,04,22,12.90
2019,08,03,04,23,12.90
2019,08,03,04,24,12.90
2019,08,03,04,25,12.90
2019,08,03,04,26,12.80
2019,08,03,04,27,12.80
2019,08,03,04,28,12.80
2019,08,03,04,29,12.80
2019,08,03,04,30,12.90
2019,08,03,04,31,12.90
2019,08,03,04,32,12.90
2019,08,03,04,33,12.90
2019,08,03,04,34,12.90
2019,08,03,04,35,12.80
2019,08,03,04,36,12.80
2019,08,03,04,37,12.80
2019,08,03,04,38,12.80
2019,08,03,04,39,12.80
2019,08,03,04,40,12.80
2019,08,03,04,41,12.80
2019,08,03,04,42,12.80
2019,08,03,04,43,12.80
2019,08,03,04,44,12.80
2019,08,03,04,45,12.80
2019,08,03,04,46,12.80
2019,08,03,04,47,12.80
2019,08,03,04,48,12.80
2019,08,03,04,49,12.80
2019,08,03,04,50,12.80
2019,08,03,04,51,12.80
2019,08,03,04,52,12.80
2019,08,03,04,53,12.90
2019,08,03,04,54,12.90
2019,08,03,04,55,12.90
2019,08,03,04,56,12.90
2019,08,03,04,57,12.90
2019,08,03,04,58,12.90
2019,08,03,04,59,12.90
2019,08,03,05,00,12.90
2019,08,03,05,01,12.90
2019,08,03,05,02,12.90
2019,08,03,05,03,12.90
2019,08,03,05,04,12.90
2019,08,03,05,05,12.90
2019,08,03,05,06,12.90
2019,08,03,05,07,12.90
2019,08,03,05,08,12.90
2019,08,03,05,09,12.90
2019,08,03,05,10,12.90
2019,08,03,05,11,12.90
2019,08,03,05,12,12.90
2019,08,03,05,13,12.90
2019,08,03,05,14,12.90
2019,08,03,05,15,12.90
2019,08,03,05,16,12.90
2019,08,03,05,17,12.90
2019,08,03,05,18,12.90
2019,08,03,05,19,12.90
2019,08,03,05,20,12.90
2019,08,03,05,21,12.90
2019,08,03,05,22,12.90
2019,08,03,05,23,12.90
2019,08,03,05,24,12.90
2019,08,03,05,25,12.90
2019,08,03,05,26,13.00
2019,08,03,05,27,13.00
2019,08,03,05,28,12.90
2019,08,03,05,29,12.90
2019,08,03,05,30,12.90
2019,08,03,05,31,12.90
2019,08,03,05,32,12.90
2019,08,03,05,33,12.90
2019,08,03,05,34,12.90
2019,08,03,05,35,12.90
2019,08,03,05,36,12.90
2019,08,03,05,37,12.90
2019,08,03,05,38,12.90
2019,08,03,05,39,12.90
2019,08,03,05,40,12.90
2019,08,03,05,41,12.90
2019,08,03,05,42,12.90
2019,08,03,05,43,12.90
2019,08,03,05,44,12.90
2019,08,03,05,45,12.90
2019,08,03,05,46,12.90
2019,08,03,05,47,12.90
2019,08,03,05,48,12.90
2019,08,03,05,49,12.90
2019,08,03,05,50,12.90
2019,08,03,05,51,12.90
2019,08,03,05,52,12.90
2019,08,03,05,53,12.90
2019,08,03,05,54,12.90
2019,08,03,05,55,12.90
2019,08,03,05,56,12.90
2019,08,03,05,57,12.90
2019,08,03,05,58,12.90
2019,08,03,05,59,12.90
2019,08,03,06,00,12.90
2019,08,03,06,01,12.90
2019,08,03,06,02,12.90
2019,08,03,06,03,12.90
2019,08,03,06,04,12.90
2019,08,03,06,05,12.90
2019,08,03,06,06,12.90
2019,08,03,06,07,12.80
2019,08,03,06,08,12.80
2019,08,03,06,09,12.80
2019,08,03,06,10,12.80
2019,08,03,06,11,12.80
2019,08,03,06,12,12.80
2019,08,03,06,13,12.80
2019,08,03,06,14,12.80
2019,08,03,06,15,12.80
2019,08,03,06,16,12.80
2019,08,03,06,17,12.80
2019,08,03,06,18,12.80
2019,08,03,06,19,12.80
2019,08,03,06,20,12.80
2019,08,03,06,21,12.80
2019,08,03,06,22,12.80
2019,08,03,06,23,12.80
2019,08,03,06,24,12.80
2019,08,03,06,25,12.80
2019,08,03,06,26,12.80
2019,08,03,06,27,12.80
2019,08,03,06,28,12.80
2019,08,03,06,29,12.80
2019,08,03,06,30,12.80
2019,08,03,06,31,12.80
2019,08,03,06,32,12.80
2019,08,03,06,33,12.80
2019,08,03,06,34,12.80
2019,08,03,06,35,12.80
2019,08,03,06,36,12.90
2019,08,03,06,37,12.90
2019,08,03,06,38,12.90
2019,08,03,06,39,12.90
2019,08,03,06,40,12.90
2019,08,03,06,41,12.90
2019,08,03,06,42,13.00
2019,08,03,06,43,13.00
2019,08,03,06,44,13.00
2019,08,03,06,45,13.10
2019,08,03,06,46,13.10
2019,08,03,06,47,13.10
2019,08,03,06,48,13.10
2019,08,03,06,49,13.20
2019,08,03,06,50,13.20
2019,08,03,06,51,13.20
2019,08,03,06,52,13.30
2019,08,03,06,53,13.30
2019,08,03,06,54,13.30
2019,08,03,06,55,13.40
2019,08,03,06,56,13.40
2019,08,03,06,57,13.40
2019,08,03,06,58,13.50
2019,08,03,06,59,13.50
2019,08,03,07,00,13.60
2019,08,03,07,01,13.60
2019,08,03,07,02,13.60
2019,08,03,07,03,13.70
2019,08,03,07,04,13.70
2019,08,03,07,05,13.70
2019,08,03,07,06,13.80
2019,08,03,07,07,13.80
2019,08,03,07,08,13.80
2019,08,03,07,09,13.90
2019,08,03,07,10,13.90
2019,08,03,07,11,13.90
2019,08,03,07,12,14.00
2019,08,03,07,13,14.00
2019,08,03,07,14,14.10
2019,08,03,07,15,14.10
2019,08,03,07,16,14.20
2019,08,03,07,17,14.20
2019,08,03,07,18,14.30
2019,08,03,07,19,14.30
2019,08,03,07,20,14.30
2019,08,03,07,21,14.40
2019,08,03,07,22,14.40
2019,08,03,07,23,14.50
2019,08,03,07,24,14.50
2019,08,03,07,25,14.60
2019,08,03,07,26,14.60
2019,08,03,07,27,14.70
2019,08,03,07,28,14.70
2019,08,03,07,29,14.80
2019,08,03,07,30,14.80
2019,08,03,07,31,14.90
2019,08,03,07,32,14.90
2019,08,03,07,33,15.00
2019,08,03,07,34,15.00
2019,08,03,07,35,15.00
2019,08,03,07,36,15.10
2019,08,03,07,37,15.10
2019,08,03,07,38,15.10
2019,08,03,07,39,15.20
2019,08,03,07,40,15.20
2019,08,03,07,41,15.30
2019,08,03,07,42,15.30
2019,08,03,07,43,15.30
2019,08,03,07,44,15.40
2019,08,03,07,45,15.50
2019,08,03,07,46,15.60
2019,08,03,07,47,15.60
2019,08,03,07,48,15.70
2019,08,03,07,49,15.70
2019,08,03,07,50,15.70
2019,08,03,07,51,15.80
2019,08,03,07,52,15.80
2019,08,03,07,53,15.90
2019,08,03,07,54,15.90
2019,08,03,07,55,15.90
2019,08,03,07,56,16.00
2019,08,03,07,57,16.10
2019,08,03,07,58,16.10
2019,08,03,07,59,16.20
2019,08,03,08,00,16.20
2019,08,03,08,01,16.20
2019,08,03,08,02,16.30
2019,08,03,08,03,16.30
2019,08,03,08,04,16.40
2019,08,03,08,05,16.40
2019,08,03,08,06,16.40
2019,08,03,08,07,16.50
2019,08,03,08,08,16.50
2019,08,03,08,09,16.50
2019,08,03,08,10,16.50
2019,08,03,08,11,16.60
2019,08,03,08,12,16.60
2019,08,03,08,13,16.70
2019,08,03,08,14,16.70
2019,08,03,08,15,16.80
2019,08,03,08,16,16.80
2019,08,03,08,17,16.90
2019,08,03,08,18,16.90
2019,08,03,08,19,17.00
2019,08,03,08,20,17.10
2019,08,03,08,21,17.10
2019,08,03,08,22,17.10
2019,08,03,08,23,17.20
2019,08,03,08,24,17.20
2019,08,03,08,25,17.20
2019,08,03,08,26,17.20
2019,08,03,08,27,17.20
2019,08,03,08,28,17.20
2019,08,03,08,29,17.30
2019,08,03,08,30,17.30
2019,08,03,08,31,17.30
2019,08,03,08,32,17.40
2019,08,03,08,33,17.40
2019,08,03,08,34,17.40
2019,08,03,08,35,17.40
2019,08,03,08,36,17.50
2019,08,03,08,37,17.50
2019,08,03,08,38,17.50
2019,08,03,08,39,17.50
2019,08,03,08,40,17.60
2019,08,03,08,41,17.60
2019,08,03,08,42,17.60
2019,08,03,08,43,17.60
2019,08,03,08,44,17.60
2019,08,03,08,45,17.60
2019,08,03,08,46,17.60
2019,08,03,08,47,17.60
2019,08,03,08,48,17.70
2019,08,03,08,49,17.70
2019,08,03,08,50,17.70
2019,08,03,08,51,17.80
2019,08,03,08,52,17.70
2019,08,03,08,53,17.80
2019,08,03,08,54,17.80
2019,08,03,08,55,17.80
2019,08,03,08,56,17.80
2019,08,03,08,57,17.90
2019,08,03,08,58,17.90
2019,08,03,08,59,17.90
2019,08,03,09,00,17.90
2019,08,03,09,01,17.90
2019,08,03,09,02,17.90
2019,08,03,09,03,17.90
2019,08,03,09,04,17.90
2019,08,03,09,05,18.00
2019,08,03,09,06,18.10
2019,08,03,09,07,18.10
2019,08,03,09,08,18.20
2019,08,03,09,09,18.30
2019,08,03,09,10,18.30
2019,08,03,09,11,18.40
2019,08,03,09,12,18.40
2019,08,03,09,13,18.50
2019,08,03,09,14,18.50
2019,08,03,09,15,18.50
2019,08,03,09,16,18.60
2019,08,03,09,17,18.60
2019,08,03,09,18,18.70
2019,08,03,09,19,18.70
2019,08,03,09,20,18.70
2019,08,03,09,21,18.70
2019,08,03,09,22,18.80
2019,08,03,09,23,18.80
2019,08,03,09,24,18.80
2019,08,03,09,25,18.80
2019,08,03,09,26,18.80
2019,08,03,09,27,18.80
2019,08,03,09,28,18.80
2019,08,03,09,29,18.80
2019,08,03,09,30,18.80
2019,08,03,09,31,18.80
2019,08,03,09,32,18.80
2019,08,03,09,33,18.80
2019,08,03,09,34,18.80
2019,08,03,09,35,18.80
2019,08,03,09,36,18.90
2019,08,03,09,37,19.00
2019,08,03,09,38,19.00
2019,08,03,09,39,19.00
2019,08,03,09,40,19.10
2019,08,03,09,41,19.10
2019,08,03,09,42,19.10
2019,08,03,09,43,19.10
2019,08,03,09,44,19.00
2019,08,03,09,45,19.00
2019,08,03,09,46,19.10
2019,08,03,09,47,19.10
2019,08,03,09,48,19.10
2019,08,03,09,49,19.10
2019,08,03,09,50,19.00
2019,08,03,09,51,19.10
2019,08,03,09,52,19.00
2019,08,03,09,53,19.00
2019,08,03,09,54,19.00
2019,08,03,09,55,18.90
2019,08,03,09,56,18.90
2019,08,03,09,57,18.90
2019,08,03,09,58,19.00
2019,08,03,09,59,19.10
2019,08,03,10,00,19.10
2019,08,03,10,01,19.20
2019,08,03,10,02,19.30
2019,08,03,10,03,19.20
2019,08,03,10,04,19.30
2019,08,03,10,05,19.30
2019,08,03,10,06,19.30
2019,08,03,10,07,19.30
2019,08,03,10,08,19.40
2019,08,03,10,09,19.40
2019,08,03,10,10,19.40
2019,08,03,10,11,19.40
2019,08,03,10,12,19.40
2019,08,03,10,13,19.50
2019,08,03,10,14,19.40
2019,08,03,10,15,19.40
2019,08,03,10,16,19.30
2019,08,03,10,17,19.20
2019,08,03,10,18,19.20
2019,08,03,10,19,19.10
2019,08,03,10,20,19.20
2019,08,03,10,21,19.30
2019,08,03,10,22,19.30
2019,08,03,10,23,19.40
2019,08,03,10,24,19.40
2019,08,03,10,25,19.40
2019,08,03,10,26,19.40
2019,08,03,10,27,19.40
2019,08,03,10,28,19.40
2019,08,03,10,29,19.40
2019,08,03,10,30,19.50
2019,08,03,10,31,19.50
2019,08,03,10,32,19.50
2019,08,03,10,33,19.60
2019,08,03,10,34,19.60
2019,08,03,10,35,19.60
2019,08,03,10,36,19.60
2019,08,03,10,37,19.60
2019,08,03,10,38,19.60
2019,08,03,10,39,19.60
2019,08,03,10,40,19.60
2019,08,03,10,41,19.60
2019,08,03,10,42,19.50
2019,08,03,10,43,19.50
2019,08,03,10,44,19.50
2019,08,03,10,45,19.60
2019,08,03,10,46,19.60
2019,08,03,10,47,19.70
2019,08,03,10,48,19.70
2019,08,03,10,49,19.80
2019,08,03,10,50,19.90
2019,08,03,10,51,20.00
2019,08,03,10,52,20.10
2019,08,03,10,53,20.20
2019,08,03,10,54,20.20
2019,08,03,10,55,20.30
2019,08,03,10,56,20.30
2019,08,03,10,57,20.20
2019,08,03,10,58,20.20
2019,08,03,10,59,20.10
2019,08,03,11,00,20.00
2019,08,03,11,01,19.90
2019,08,03,11,02,19.80
2019,08,03,11,03,19.80
2019,08,03,11,04,19.70
2019,08,03,11,05,19.70
2019,08,03,11,06,19.70
2019,08,03,11,07,19.70
2019,08,03,11,08,19.60
2019,08,03,11,09,19.60
2019,08,03,11,10,19.50
2019,08,03,11,11,19.40
2019,08,03,11,12,19.40
2019,08,03,11,13,19.40
2019,08,03,11,14,19.40
2019,08,03,11,15,19.50
2019,08,03,11,16,19.40
2019,08,03,11,17,19.40
2019,08,03,11,18,19.30
2019,08,03,11,19,19.30
2019,08,03,11,20,19.30
2019,08,03,11,21,19.30
2019,08,03,11,22,19.20
2019,08,03,11,23,19.20
2019,08,03,11,24,19.10
2019,08,03,11,25,19.20
2019,08,03,11,26,19.20
2019,08,03,11,27,19.30
2019,08,03,11,28,19.40
2019,08,03,11,29,19.40
2019,08,03,11,30,19.50
2019,08,03,11,31,19.50
2019,08,03,11,32,19.60
2019,08,03,11,33,19.60
2019,08,03,11,34,19.80
2019,08,03,11,35,19.90
2019,08,03,11,36,20.00
2019,08,03,11,37,20.10
2019,08,03,11,38,20.10
2019,08,03,11,39,20.20
2019,08,03,11,40,20.20
2019,08,03,11,41,20.20
2019,08,03,11,42,20.20
2019,08,03,11,43,20.10
2019,08,03,11,44,20.10
2019,08,03,11,45,20.00
2019,08,03,11,46,20.00
2019,08,03,11,47,20.00
2019,08,03,11,48,20.10
2019,08,03,11,49,20.10
2019,08,03,11,50,20.00
2019,08,03,11,51,20.00
2019,08,03,11,52,19.90
2019,08,03,11,53,19.90
2019,08,03,11,54,19.80
2019,08,03,11,55,19.70
2019,08,03,11,56,19.60
2019,08,03,11,57,19.60
2019,08,03,11,58,19.50
2019,08,03,11,59,19.40
2019,08,03,12,00,19.50
2019,08,03,12,01,19.60
2019,08,03,12,02,19.60
2019,08,03,12,03,19.60
2019,08,03,12,04,19.60
2019,08,03,12,05,19.60
2019,08,03,12,06,19.60
2019,08,03,12,07,19.60
2019,08,03,12,08,19.60
2019,08,03,12,09,19.60
2019,08,03,12,10,19.50
2019,08,03,12,11,19.50
2019,08,03,12,12,19.50
2019,08,03,12,13,19.50
2019,08,03,12,14,19.60
2019,08,03,12,15,19.60
2019,08,03,12,16,19.70
2019,08,03,12,17,19.80
2019,08,03,12,18,19.90
2019,08,03,12,19,19.90
2019,08,03,12,20,19.90
2019,08,03,12,21,19.90
2019,08,03,12,22,19.90
2019,08,03,12,23,20.00
2019,08,03,12,24,20.00
2019,08,03,12,25,20.00
2019,08,03,12,26,20.10
2019,08,03,12,27,20.10
2019,08,03,12,28,20.10
2019,08,03,12,29,20.10
2019,08,03,12,30,20.10
2019,08,03,12,31,20.10
2019,08,03,12,32,20.10
2019,08,03,12,33,20.10
2019,08,03,12,34,20.20
2019,08,03,12,35,20.30
2019,08,03,12,36,20.30
2019,08,03,12,37,20.30
2019,08,03,12,38,20.30
2019,08,03,12,39,20.20
2019,08,03,12,40,20.20
2019,08,03,12,41,20.20
2019,08,03,12,42,20.10
2019,08,03,12,43,20.10
2019,08,03,12,44,20.00
2019,08,03,12,45,19.90
2019,08,03,12,46,19.90
2019,08,03,12,47,19.90
2019,08,03,12,48,19.80
2019,08,03,12,49,19.90
2019,08,03,12,50,19.90
2019,08,03,12,51,19.90
2019,08,03,12,52,19.90
2019,08,03,12,53,19.90
2019,08,03,12,54,19.80
2019,08,03,12,55,19.70
2019,08,03,12,56,19.80
2019,08,03,12,57,19.80
2019,08,03,12,58,19.90
2019,08,03,12,59,20.00
2019,08,03,13,00,20.10
2019,08,03,13,01,20.20
2019,08,03,13,02,20.20
2019,08,03,13,03,20.20
2019,08,03,13,04,20.10
2019,08,03,13,05,20.10
2019,08,03,13,06,20.00
2019,08,03,13,07,20.00
2019,08,03,13,08,20.00
2019,08,03,13,09,20.00
2019,08,03,13,10,20.10
2019,08,03,13,11,20.10
2019,08,03,13,12,20.20
2019,08,03,13,13,20.20
2019,08,03,13,14,20.30
2019,08,03,13,15,20.30
2019,08,03,13,16,20.40
2019,08,03,13,17,20.50
2019,08,03,13,18,20.50
2019,08,03,13,19,20.70
2019,08,03,13,20,20.80
2019,08,03,13,21,20.90
2019,08,03,13,22,21.00
2019,08,03,13,23,21.00
2019,08,03,13,24,21.00
2019,08,03,13,25,21.00
2019,08,03,13,26,20.90
2019,08,03,13,27,20.90
2019,08,03,13,28,20.80
2019,08,03,13,29,20.80
2019,08,03,13,30,20.80
2019,08,03,13,31,20.80
2019,08,03,13,32,20.70
2019,08,03,13,33,20.70
2019,08,03,13,34,20.60
2019,08,03,13,35,20.50
2019,08,03,13,36,20.50
2019,08,03,13,37,20.50
2019,08,03,13,38,20.50
2019,08,03,13,39,20.60
2019,08,03,13,40,20.60
2019,08,03,13,41,20.70
2019,08,03,13,42,20.80
2019,08,03,13,43,20.80
2019,08,03,13,44,20.80
2019,08,03,13,45,20.80
2019,08,03,13,46,20.70
2019,08,03,13,47,20.70
2019,08,03,13,48,20.80
2019,08,03,13,49,20.80
2019,08,03,13,50,20.80
2019,08,03,13,51,20.90
2019,08,03,13,52,20.80
2019,08,03,13,53,20.80
2019,08,03,13,54,20.90
2019,08,03,13,55,20.90
2019,08,03,13,56,20.90
2019,08,03,13,57,21.00
2019,08,03,13,58,21.00
2019,08,03,13,59,21.00
2019,08,03,14,00,20.90
2019,08,03,14,01,20.90
2019,08,03,14,02,20.90
2019,08,03,14,03,21.00
2019,08,03,14,04,21.00
2019,08,03,14,05,21.10
2019,08,03,14,06,21.10
2019,08,03,14,07,21.10
2019,08,03,14,08,21.00
2019,08,03,14,09,20.90
2019,08,03,14,10,20.90
2019,08,03,14,11,21.00
2019,08,03,14,12,21.10
2019,08,03,14,13,21.10
2019,08,03,14,14,21.00
2019,08,03,14,15,21.00
2019,08,03,14,16,21.10
2019,08,03,14,17,21.10
2019,08,03,14,18,21.30
2019,08,03,14,19,21.40
2019,08,03,14,20,21.40
2019,08,03,14,21,21.40
2019,08,03,14,22,21.40
2019,08,03,14,23,21.50
2019,08,03,14,24,21.50
2019,08,03,14,25,21.50
2019,08,03,14,26,21.40
2019,08,03,14,27,21.40
2019,08,03,14,28,21.30
2019,08,03,14,29,21.30
2019,08,03,14,30,21.30
2019,08,03,14,31,21.30
2019,08,03,14,32,21.30
2019,08,03,14,33,21.30
2019,08,03,14,34,21.30
2019,08,03,14,35,21.30
2019,08,03,14,36,21.30
2019,08,03,14,37,21.40
2019,08,03,14,38,21.40
2019,08,03,14,39,21.50
2019,08,03,14,40,21.60
2019,08,03,14,41,21.60
2019,08,03,14,42,21.70
2019,08,03,14,43,21.80
2019,08,03,14,44,21.90
2019,08,03,14,45,21.90
2019,08,03,14,46,22.00
2019,08,03,14,47,22.00
2019,08,03,14,48,22.10
2019,08,03,14,49,22.10
2019,08,03,14,50,22.10
2019,08,03,14,51,22.10
2019,08,03,14,52,22.10
2019,08,03,14,53,22.10
2019,08,03,14,54,22.10
2019,08,03,14,55,22.10
2019,08,03,14,56,22.10
2019,08,03,14,57,22.10
2019,08,03,14,58,22.10
2019,08,03,14,59,22.20
2019,08,03,15,00,22.20
2019,08,03,15,01,22.30
2019,08,03,15,02,22.30
2019,08,03,15,03,22.30
2019,08,03,15,04,22.30
2019,08,03,15,05,22.30
2019,08,03,15,06,22.30
2019,08,03,15,07,22.30
2019,08,03,15,08,22.40
2019,08,03,15,09,22.40
2019,08,03,15,10,22.50
2019,08,03,15,11,22.50
2019,08,03,15,12,22.60
2019,08,03,15,13,22.70
2019,08,03,15,14,22.80
2019,08,03,15,15,22.80
2019,08,03,15,16,22.80
2019,08,03,15,17,22.80
2019,08,03,15,18,22.80
2019,08,03,15,19,22.80
2019,08,03,15,20,22.80
2019,08,03,15,21,22.70
2019,08,03,15,22,22.70
2019,08,03,15,23,22.70
2019,08,03,15,24,22.80
2019,08,03,15,25,22.80
2019,08,03,15,26,22.80
2019,08,03,15,27,22.90
2019,08,03,15,28,22.90
2019,08,03,15,29,22.90
2019,08,03,15,30,22.90
2019,08,03,15,31,22.90
2019,08,03,15,32,22.90
2019,08,03,15,33,22.90
2019,08,03,15,34,22.90
2019,08,03,15,35,22.90
2019,08,03,15,36,23.00
2019,08,03,15,37,23.00
2019,08,03,15,38,23.00
2019,08,03,15,39,23.00
2019,08,03,15,40,23.00
2019,08,03,15,41,23.10
2019,08,03,15,42,23.10
2019,08,03,15,43,23.10
2019,08,03,15,44,23.10
2019,08,03,15,45,23.10
2019,08,03,15,46,23.20
2019,08,03,15,47,23.20
2019,08,03,15,48,23.30
2019,08,03,15,49,23.30
2019,08,03,15,50,23.30
2019,08,03,15,51,23.40
2019,08,03,15,52,23.50
2019,08,03,15,53,23.60
2019,08,03,15,54,23.60
2019,08,03,15,55,23.60
2019,08,03,15,56,23.70
2019,08,03,15,57,23.70
2019,08,03,15,58,23.70
2019,08,03,15,59,23.70
2019,08,03,16,00,23.80
2019,08,03,16,01,23.80
2019,08,03,16,02,23.80
2019,08,03,16,03,23.80
2019,08,03,16,04,23.90
2019,08,03,16,05,23.90
2019,08,03,16,06,24.00
2019,08,03,16,07,24.00
2019,08,03,16,08,24.10
2019,08,03,16,09,24.10
2019,08,03,16,10,24.20
2019,08,03,16,11,24.30
2019,08,03,16,12,24.30
2019,08,03,16,13,24.30
2019,08,03,16,14,24.30
2019,08,03,16,15,24.30
2019,08,03,16,16,24.40
2019,08,03,16,17,24.40
2019,08,03,16,18,24.50
2019,08,03,16,19,24.50
2019,08,03,16,20,24.60
2019,08,03,16,21,24.70
2019,08,03,16,22,24.80
2019,08,03,16,23,24.90
2019,08,03,16,24,24.90
2019,08,03,16,25,25.00
2019,08,03,16,26,25.00
2019,08,03,16,27,25.10
2019,08,03,16,28,25.20
2019,08,03,16,29,25.30
2019,08,03,16,30,25.30
2019,08,03,16,31,25.30
2019,08,03,16,32,25.30
2019,08,03,16,33,25.30
2019,08,03,16,34,25.30
2019,08,03,16,35,25.40
2019,08,03,16,36,25.40
2019,08,03,16,37,25.50
2019,08,03,16,38,25.60
2019,08,03,16,39,25.70
2019,08,03,16,40,25.70
2019,08,03,16,41,25.70
2019,08,03,16,42,25.70
2019,08,03,16,43,25.60
2019,08,03,16,44,25.50
2019,08,03,16,45,25.30
2019,08,03,16,46,25.10
2019,08,03,16,47,24.90
2019,08,03,16,48,24.70
2019,08,03,16,49,24.60
2019,08,03,16,50,24.40
2019,08,03,16,51,24.20
2019,08,03,16,52,24.10
2019,08,03,16,53,23.90
2019,08,03,16,54,23.80
2019,08,03,16,55,23.80
2019,08,03,16,56,23.70
2019,08,03,16,57,23.70
2019,08,03,16,58,23.80
2019,08,03,16,59,23.80
2019,08,03,17,00,23.80
2019,08,03,17,01,23.90
2019,08,03,17,02,23.80
2019,08,03,17,03,23.80
2019,08,03,17,04,23.80
2019,08,03,17,05,23.80
2019,08,03,17,06,23.80
2019,08,03,17,07,23.80
2019,08,03,17,08,23.80
2019,08,03,17,09,23.80
2019,08,03,17,10,23.80
2019,08,03,17,11,23.90
2019,08,03,17,12,23.90
2019,08,03,17,13,23.90
2019,08,03,17,14,23.90
2019,08,03,17,15,23.90
2019,08,03,17,16,23.90
2019,08,03,17,17,24.00
2019,08,03,17,18,24.00
2019,08,03,17,19,24.10